• Join FlightAware (Why Join?)
  • Login
  • US Flag 
09:14AM EDT


 

Airport Tracker/Info


-or-


 

Live Flight TrackerFlight Track Log ✈ ASQ5025 ✈ 25-Apr-2013 ✈ KBTV - KLGA

Flight Track Log - Related Links

Times and Time Zones

All times are in EDT time to prevent confusion due to time zone crossing. See the ASQ5025 flight status page for this flight to view local times or setup timezone preferences in your user account.

Time Position Orientation Groundspeed Altitude Reporting Facility
EDT Latitude Longitude Course Direction KTS MPH feet Rate Location/Type
11:32AM 44.3406 -73.4211 195° South 284 327 9,600  Level Boston Center
11:33AM 44.0366 -73.3121 196° South  Level FlightAware Approximate
11:33AM 44.2508 -73.4428 190° South 310 357 10,000  Level Boston Center
11:34AM 43.9650 -73.3407 196° South  Level FlightAware Approximate
11:34AM 44.1714 -73.4617 190° South 351 404 12,000  Level Boston Center
11:35AM 43.8935 -73.3691 195° South  Level FlightAware Approximate
11:35AM 44.0522 -73.4914 190° South 363 418 15,500  Level Boston Center
11:36AM 43.8217 -73.3962 195° South  Level FlightAware Approximate
11:36AM 43.9625 -73.5158 191° South 351 404 18,300  Level Boston Center
11:37AM 43.7498 -73.4232 195° South  Level FlightAware Approximate
11:37AM 43.8686 -73.5372 189° South 346 398 19,000  Level Boston Center
11:38AM 43.7725 -73.5614 190° South 346 398 20,500 1,500 Climbing Boston Center
11:39AM 43.6742 -73.5853 190° South 363 418 22,000 720 Climbing Boston Center
11:40AM 43.5781 -73.6067 189° South 374 430 22,000  Level Boston Center
11:41AM 43.4736 -73.6303 189° South 374 430 22,000  Level Boston Center
11:42AM 43.3714 -73.6569 191° South 374 430 22,000  Level Boston Center
11:43AM 43.2692 -73.6719 186° South 374 430 22,000  Level Boston Center
11:44AM 43.1608 -73.6669 178° South 374 430 22,000  Level Boston Center
11:45AM 43.0419 -73.6644 179° South 386 444 22,000  Level Boston Center
11:46AM 42.9358 -73.6594 178° South 386 444 22,000  Level Boston Center
11:47AM 42.8317 -73.6517 177° South 379 436 22,000  Level Boston Center
11:48AM 42.7275 -73.6497 179° South 379 436 22,000  Level Boston Center
11:49AM 42.6192 -73.6447 178° South 385 443 22,000  Level Boston Center
11:50AM 42.5108 -73.6400 178° South 385 443 22,000  Level Boston Center
11:51AM 42.3836 -73.6347 178° South 385 443 22,000 -420 Level Boston Center
11:52AM 42.2881 -73.6244 175° South 379 436 21,200 -1,380 Descending Boston Center
11:53AM 42.1942 -73.6283 182° South 369 425 19,300 -1,500 Descending Boston Center
11:54AM 42.1019 -73.6656 197° South 332 382 18,300 -660 Descending Boston Center
11:55AM 42.0414 -73.6869 195° South 284 327 18,000 -180 Descending Boston Center
11:56AM 41.9661 -73.7133 195° South 257 296 18,000 -600 Level Boston Center
11:57AM 41.8989 -73.7397 196° South 266 306 16,900 -1,380 Descending Boston Center
11:58AM 41.8297 -73.7831 205° Southwest 265 305 15,300 -960 Descending Boston Center
11:59AM 41.8078 -73.8633 250° West 240 276 15,000 -240 Descending Boston Center
12:00PM 41.7775 -73.9600 247° West 251 289 14,900 -720 Descending Boston Center
12:01PM 41.7147 -73.9808 194° South 241 277 13,600 -1,140 Descending Boston Center
12:02PM 41.6297 -73.9481 164° South 258 297 12,700 -1,080 Descending Boston Center
12:03PM 41.5672 -73.9300 168° South 285 328 11,500 -1,260 Descending Boston Center
12:04PM 41.4500 -73.8833 163° South 286 329 10,000 -1,140 Descending New York TRACON
12:05PM 41.3833 -73.8333 151° Southeast 296 341 9,000 -1,020 Descending New York TRACON
12:06PM 41.3167 -73.7667 143° Southeast 291 335 8,000 -960 Descending New York TRACON
12:07PM 41.2500 -73.7167 151° Southeast 298 343 7,200 -960 Descending New York TRACON
12:08PM 41.1833 -73.6667 151° Southeast 291 335 6,200 -1,020 Descending New York TRACON
12:09PM 41.1000 -73.6167 156° South 288 331 5,100 -720 Descending New York TRACON
12:11PM 40.9667 -73.5833 169° South 236 272 4,100 -360 Descending New York TRACON
12:12PM 40.9167 -73.6167 207° Southwest 237 273 4,100  Level New York TRACON
12:13PM 40.8500 -73.6500 201° Southwest 234 269 4,100  Level New York TRACON
12:14PM 40.8000 -73.6833 207° Southwest 226 260 4,100  Level New York TRACON
12:15PM 40.7833 -73.7500 252° West 176 203 4,100  Level New York TRACON
12:16PM 40.7833 -73.8167 270° West 185 213 4,100  Level New York TRACON
12:17PM 40.7833 -73.8833 270° West 190 219 4,100  Level New York TRACON
12:18PM 40.7667 -73.9500 252° West 182 209 4,100  Level New York TRACON
12:19PM 40.7500 -74.0167 252° West 188 216 4,100  Level New York TRACON